Wetbulb
66.67 64.79 62.73 60.88 58.26 59.11 58.58 58.49 59.42 59.04 59.12 57.99 57.68 57.27 57.79 57.17 58.21 59.03 57.92 57.03 56.58 56.40
61.56 60.65 59.28 60.19 61.05 59.57 59.04 57.63 57.65 57.75 57.34 57.01 56.81 56.62 57.13 56.67 56.89 56.99 56.33 55.38 54.91 54.33
60.62 61.21 60.55 60.15 59.51 59.01 58.11 57.32 56.90 56.51 56.36 55.82 55.96 55.52 56.17 56.31 56.47 55.79 55.20 54.67 53.96 53.69
60.11 59.73 59.76 59.80 58.76 57.97 57.52 57.10 56.22 56.09 55.79 55.40 55.28 55.07 55.82 55.67 54.81 54.35 54.53 54.12 52.60 52.24
58.66 58.19 58.57 57.43 57.74 57.25 56.72 56.70 56.45 55.85 55.31 54.57 54.37 55.36 54.56 53.38 53.49 53.30 52.62 51.67 51.49 50.81
58.73 57.78 57.34 55.98 55.98 56.10 55.98 56.29 55.75 55.52 54.64 53.88 53.92 53.53 54.03 53.56 52.94 52.46 52.11 50.97 50.27 50.06
57.31 57.25 55.83 56.23 55.61 55.34 55.93 55.31 55.20 54.80 53.85 53.27 52.75 52.57 52.65 52.51 51.93 51.05 50.36 50.17 50.23 49.48
57.38 57.53 56.81 55.22 55.26 55.43 55.26 54.97 54.42 52.93 52.03 52.70 53.03 52.25 51.94 51.59 50.96 49.89 49.76 49.62 49.25 49.20
57.17 56.58 55.16 54.17 54.27 53.99 53.39 53.10 52.21 51.28 51.62 51.69 51.18 46.78 46.65 47.96 49.06 48.67 47.95 47.65 48.33 49.02
56.47 55.77 54.44 53.74 53.28 52.31 51.07 50.93 50.70 50.57 50.40 48.83 49.46 45.55 45.52 45.86 48.00 47.71 47.92 47.92 47.73 47.62
51.70 51.12 51.24 47.72 45.76 45.50 45.38 45.34 45.23 45.31 44.73 45.30 46.73 43.55 43.39 44.51 47.60 47.62 47.43 47.79 48.14 47.87
46.25 44.98 44.87 43.56 42.87 42.96 43.58 43.11 43.08 44.55 44.40 44.42 45.26 43.12 41.96 43.10 46.94 46.63 46.36 46.90 47.97 47.09
45.24 44.77 43.31 43.17 43.58 42.64 43.13 42.85 43.53 42.88 43.77 43.67 43.61 43.08 41.43 42.42 44.71 44.91 45.16 46.22 46.92 44.90
43.75 42.70 43.04 42.52 42.82 41.99 41.46 43.03 42.93 41.72 42.80 43.33 43.80 44.07 41.65 41.19 44.53 44.61 43.51 43.97 44.88 45.98
MSLP
1013.73 1014.23 1015.03 1015.71 1016.21 1016.56 1016.88 1017.74 1018.25 1018.47 1018.62 1018.86 1019.10 1019.09 1019.12 1018.97 1019.10 1019.35 1019.39 1019.60 1019.75 1019.38
1013.93 1014.45 1015.16 1015.93 1016.26 1016.77 1017.39 1018.02 1018.31 1018.71 1019.00 1019.22 1019.40 1019.51 1019.34 1019.16 1019.27 1019.48 1019.64 1019.79 1019.70 1019.56
1013.60 1014.47 1015.01 1015.58 1015.95 1016.65 1017.71 1018.21 1018.49 1018.98 1018.99 1019.54 1019.54 1019.64 1019.45 1019.51 1019.68 1019.73 1019.83 1020.06 1019.92 1019.79
1013.48 1014.31 1015.25 1016.24 1016.34 1016.68 1016.70 1018.23 1018.70 1018.77 1018.96 1019.43 1019.50 1019.54 1019.65 1019.71 1019.74 1019.84 1019.93 1020.21 1020.20 1020.00
1013.14 1013.79 1014.38 1015.72 1016.97 1017.60 1017.54 1018.20 1018.53 1018.79 1019.12 1019.26 1019.72 1019.66 1019.71 1019.51 1019.50 1019.55 1019.69 1019.90 1020.18 1019.89
1012.79 1013.16 1014.15 1015.49 1016.69 1017.18 1018.04 1017.99 1018.85 1019.09 1019.22 1019.52 1019.78 1019.95 1020.04 1019.91 1019.72 1019.70 1019.77 1019.85 1020.06 1019.79
1012.69 1013.24 1014.58 1014.78 1016.13 1017.42 1017.86 1018.46 1018.96 1019.36 1019.49 1020.02 1019.98 1020.16 1020.29 1020.36 1020.28 1020.24 1020.12 1020.23 1020.25 1020.12
1012.81 1013.45 1014.88 1015.91 1016.78 1017.41 1017.84 1018.82 1019.41 1019.82 1019.92 1020.16 1020.09 1019.89 1020.24 1020.25 1020.33 1020.34 1020.33 1020.35 1020.19 1019.86
1013.09 1014.15 1015.37 1016.36 1017.38 1017.77 1018.25 1019.05 1019.80 1020.11 1020.34 1020.34 1020.10 1020.49 1020.70 1020.70 1020.51 1020.37 1020.12 1019.95 1019.77 1019.69
1013.91 1014.70 1015.70 1016.99 1017.91 1018.48 1019.06 1019.75 1020.17 1020.56 1021.02 1020.94 1020.66 1021.08 1021.20 1020.92 1020.34 1020.34 1020.24 1019.80 1019.55 1019.39
1014.88 1015.76 1016.41 1017.62 1018.64 1019.67 1020.49 1020.77 1020.92 1020.92 1021.16 1021.59 1020.82 1020.88 1020.80 1020.92 1020.44 1020.00 1020.02 1019.55 1019.24 1019.09
1016.04 1016.69 1017.53 1018.93 1019.45 1019.80 1020.72 1021.26 1021.30 1021.06 1021.00 1021.68 1020.80 1020.80 1020.95 1020.58 1019.92 1019.74 1019.18 1019.27 1018.60 1018.62
1016.98 1017.61 1018.31 1018.51 1020.31 1020.22 1020.74 1021.36 1021.46 1021.36 1021.16 1020.92 1020.73 1020.65 1020.83 1020.76 1019.77 1019.16 1018.60 1018.61 1017.99 1017.88
1018.20 1018.82 1019.18 1019.85 1020.00 1020.58 1021.02 1021.24 1021.50 1021.38 1020.58 1020.68 1020.55 1020.16 1020.58 1020.82 1019.74 1018.94 1018.45 1018.16 1017.33 1017.07
Wind_Speed
14 10 10 10 9 8 9 8 8 7 8 7 6 5 4 4 4 4 4 5 4 3
10 12 10 12 10 9 9 8 9 8 8 7 6 5 4 4 4 4 3 3 4 3
13 12 14 13 13 12 9 9 10 9 9 6 6 4 3 4 4 3 3 3 4 5
14 14 13 10 11 11 14 10 9 9 9 7 6 4 4 4 4 3 2 3 5 6
16 16 14 11 9 9 9 9 9 9 8 7 5 5 5 4 4 2 1 3 6 7
18 16 13 12 10 10 10 10 8 7 6 6 5 5 2 0 1 1 2 4 6 6
13 15 11 13 12 9 8 8 7 5 5 4 5 3 1 2 2 4 4 5 6 7
13 11 11 9 10 10 9 7 6 5 4 3 2 1 2 2 3 5 7 7 7 6
12 12 12 11 10 9 9 8 6 4 2 3 3 4 2 4 5 6 7 8 7 6
12 13 12 10 9 9 8 7 6 3 3 5 5 3 5 5 7 7 7 7 6 7
11 11 12 13 12 10 7 7 5 3 2 6 4 5 6 9 10 8 9 9 9 9
14 15 14 11 9 8 5 3 1 1 4 8 6 4 8 8 8 9 8 10 9 9
12 12 10 11 6 5 5 1 2 3 5 6 6 6 8 8 7 9 8 10 10 8
11 11 11 7 7 5 3 0 4 5 4 7 7 6 7 9 9 9 8 10 9 8
Wind_Direction
149 150 151 153 148 148 135 135 131 115 108 102 98 94 90 87 79 87 82 75 44 33
144 146 147 148 143 137 129 130 126 125 121 113 110 109 120 105 119 104 82 78 56 353
153 152 149 151 146 141 134 138 135 132 119 120 121 120 123 138 110 88 53 6 8 355
152 153 151 154 151 145 142 147 145 138 138 144 132 121 125 118 126 113 88 356 345 341
152 156 147 145 154 155 137 151 151 150 143 132 133 134 141 142 140 174 272 333 322 329
164 154 148 148 155 149 164 152 158 151 141 136 134 125 125 182 185 254 280 300 301 317
159 157 158 146 152 157 158 150 153 148 126 122 115 96 11 299 307 298 301 304 307 316
157 141 141 129 144 146 140 145 142 133 118 148 183 220 250 233 270 295 297 291 285 283
139 142 139 136 146 139 133 133 131 123 166 240 284 65 198 294 297 289 276 278 276 266
146 139 129 127 131 120 113 115 113 96 321 323 315 327 243 280 281 288 285 281 279 269
102 108 107 95 86 68 58 51 40 43 322 289 281 277 275 283 271 278 284 278 271 272
100 102 96 88 101 108 99 87 218 238 266 273 294 298 287 275 273 280 281 283 271 288
82 84 89 112 105 121 106 170 256 266 251 263 290 292 285 291 291 279 291 288 277 245
77 81 94 85 94 71 63 308 284 281 282 282 279 292 291 290 299 294 297 287 288 284